#timestamp,LO_Frequency,Hit,StdDev 
1516878015.8,286046998.8,N
1516878035.7,286047000.7,N
1516878055.5,286046998.5,N
1516878075.3,286046998.8,N
1516878095.2,286046999.0,N
1516878115.0,286046996.6,N
1516878115.9,286046996.6,N
1516878135.8,286046998.9,N
1516878155.6,286047000.6,N
1516878175.4,286046999.7,N
1516878195.3,286047001.9,N
1516878215.1,286047000.3,N
1516878235.9,286046998.5,N
1516878255.7,286046998.3,N
1516878275.5,286046998.3,N
1516878295.4,286046998.3,N
1516878315.2,286047002.1,N
1516878335.1,286047000.2,N
1516878336.0,286047000.2,N
1516878355.8,286046998.8,N
1516878375.6,286047000.8,N
1516878395.5,286046998.3,N
1516878415.3,286046999.3,N
1516878435.1,286047000.9,N
1516878455.9,286047001.1,N
1516878475.7,286047001.0,N
1516878495.6,286046998.8,N
1516878515.4,286046999.1,N
1516878535.2,286046998.2,N
1516878555.1,286046998.4,N
1516878556.0,286046998.4,N
1516878575.8,286047000.3,N
1516878595.7,286047000.0,N
1516878615.5,286047000.2,N
1516878635.3,286047000.2,N
1516878655.2,286047004.2,Y
1516878675.0,286047001.7,P
1516878675.9,286047001.7,N
1516878695.8,286047003.4,P
1516878715.6,286047003.2,N
1516878735.4,286047002.1,N
1516878755.3,286047000.6,N
1516878775.1,286047002.2,N
1516878825.9,286047002.3,E
1516878835.8,286047000.1,N
1516878855.6,286047000.6,P
1516878875.5,286046998.5,P
1516878895.3,286047000.9,N
1516878915.1,286047001.1,N
1516878935.9,286047000.6,N
1516878955.7,286046998.6,N
1516878975.6,286046998.3,N
1516878995.4,286047001.0,N
1516879015.2,286047001.0,N
1516879035.1,286046998.8,N
1516879036.0,286046998.8,N
1516879055.8,286046999.5,N
1516879075.6,286047000.8,N
1516879095.5,286047001.2,N
1516879115.3,286047001.9,N
1516879135.2,286047001.7,N
1516879155.9,286046999.9,N
1516879175.7,286047000.0,N
1516879195.6,286047000.4,N
1516879215.7,286047000.2,N
1516879235.5,286047001.0,N
1516879255.3,286047000.3,N
1516879275.2,286046998.5,N
1516879295.0,286046999.6,N
1516879295.9,286046999.6,N
1516879315.8,286046996.8,Y
1516879335.6,286046995.0,P
1516879355.4,286046997.4,N
1516879375.3,286046996.5,N
1516879395.1,286046997.0,N
1516879415.8,286046999.6,N
1516879435.7,286046998.4,N
1516879455.5,286046998.5,N
1516879475.4,286046998.3,N
1516879495.2,286046997.0,N
1516879515.0,286046996.9,N
1516879515.9,286046996.9,N
1516879535.8,286046996.7,N
1516879555.8,286046997.4,N
1516879575.7,286046997.3,N
1516879595.5,286046995.3,Y
1516879615.3,286046998.5,P
1516879635.2,286047001.0,N
1516879655.0,286047000.5,N
1516879655.9,286047000.5,N
1516879675.8,286047000.0,N
1516879695.6,286047000.9,N
1516879715.4,286047002.7,N
1516879735.3,286047000.7,N
1516879755.1,286047002.7,N
1516879775.9,286047001.9,N
1516879795.7,286046999.7,N
1516879815.5,286047001.5,N
1516879835.4,286047002.0,N
1516879855.2,286047002.6,N
1516879875.0,286047000.1,N
1516879875.9,286047000.1,N
1516879895.8,286047000.7,N
1516879915.6,286047001.6,N
1516879935.5,286047000.3,N
1516879955.3,286047000.9,N
1516879975.1,286047001.6,N
1516879995.9,286047001.8,N
1516880015.7,286047001.4,N
1516880035.5,286047002.5,N
1516880055.4,286047002.2,N
1516880075.2,286047004.0,Y
1516880095.1,286047001.6,P
1516880096.0,286047001.6,P
1516880115.8,286047002.0,P
1516880135.6,286047002.6,Y
1516880155.5,286046998.6,P
1516880175.3,286046999.5,N
1516880195.2,286046997.4,N
1516880215.9,286046997.8,N
1516880235.7,286046996.9,N
1516880255.6,286046997.9,N
1516880275.4,286046997.4,N
1516880295.3,286046996.6,N
1516880315.1,286046997.2,N
1516880316.0,286046997.2,N
1516880335.8,286046999.5,N
1516880355.7,286046999.6,N
1516880375.5,286046996.9,N
1516880395.3,286046995.3,Y
1516880415.2,286046996.8,P
1516880435.0,286046999.0,N
1516880435.9,286046999.0,N
1516880455.8,286046999.1,N
1516880475.6,286046998.8,N
1516880495.4,286046997.0,Y
1516880515.3,286046998.5,P
1516880535.1,286047001.2,P
1516880555.9,286047001.2,N
1516880575.7,286046998.4,N
1516880595.5,286046999.6,N
1516880615.4,286046999.6,N
1516880635.2,286046997.4,N
1516880655.1,286046997.5,N
1516880656.0,286046997.5,N
1516880675.8,286046998.0,N
1516880695.6,286046997.8,N
1516880715.5,286046997.5,N
1516880735.3,286046997.9,N
1516880755.1,286046997.7,N
1516880775.9,286046995.6,Y
1516880795.7,286046997.8,P
1516880815.6,286046995.2,P
1516880835.4,286046995.7,P
1516880855.2,286046995.1,Y
1516880875.1,286046999.0,P
1516880876.0,286046999.0,N
1516880895.8,286046999.4,N
1516880915.7,286046998.3,N
1516880935.5,286046999.4,N
1516880955.3,286046998.9,N
1516880975.2,286046999.6,N
1516880995.9,286046996.9,Y
1516881015.7,286046996.6,P
1516881035.6,286046996.6,P
1516881055.4,286046997.3,N
1516881075.3,286046997.6,N
1516881095.1,286046999.1,N
1516881096.0,286046999.1,N
1516881115.8,286046998.8,N
1516881135.7,286046999.2,N
1516881155.5,286046997.0,N
1516881175.3,286046997.0,N
1516881195.2,286046997.1,N
1516881215.0,286046998.6,N
1516881215.9,286046998.6,N
1516881235.8,286047000.7,N
1516881255.6,286047000.1,N
1516881275.4,286047001.1,N
1516881295.3,286046998.7,N
1516881315.1,286046999.4,N
1516881335.8,286046996.6,N
1516881355.7,286046996.9,N
1516881375.5,286046999.4,N
1516881395.4,286046996.6,N
1516881415.2,286046997.2,N
1516881435.0,286046997.0,N
1516881435.9,286046997.0,N
1516881455.8,286046996.5,N
1516881475.6,286046997.3,N
1516881495.5,286046995.3,Y
1516881515.3,286046998.3,P
1516881535.1,286046998.9,P
1516881555.9,286046997.6,P
1516881575.7,286046995.4,Y
1516881595.5,286046999.4,P
